Flag for Costa Rica Weather past 2 weeks in Alajuela, Costa Rica

Now
68 °F

Partly cloudy.


Feels Like: 68 °F
Forecast: 65 / 80 °F
Wind: No wind

Location: Juan Santamaria

Current Time: Oct 20, 2014 at 10:54:58 PM

Latest Report: Oct 20, 2014 at 10:00 PM


Visibility: N/A

Pressure: 30.00 "Hg

Humidity: 94%

Dew point: 66 °F

Location of AlajuelaLocation

Historic Weather in Alajuela — Graph

°F

Alajuela temperature yesterday

Maximum temperature yesterday: 79 °F (at 11:00 AM)
Minimum temperature yesterday: 66 °F (at 12:00 AM)
Average temperature yesterday: 70 °F

Past Weeks' High & Low Weather Summary

 TemperatureHumidityPressure
High84 °F (Oct 16, 10:00 AM)100% (Oct 6, 6:00 PM)30.12 "Hg (Oct 6, 6:00 PM)
Low64 °F (Oct 10, 5:00 AM)51% (Oct 16, 10:00 AM)29.88 "Hg (Oct 20, 3:00 PM)
Average71 °F86%30.00 "Hg
* Reported Oct 5 9:00 PM — Oct 20 9:00 PM, Alajuela, Weather by CustomWeather, © 2014

Note: Actual official high and low records may vary slightly from our data, if they occured in-between our weather recording intervals... More about our weather records

Advertising

Alajuela weather history for previous 24 hours

 ConditionsComfort  
Time TempWeatherWind HumidityBarometerVisibility
9:00 PM
Oct 20
68 °FPartly cloudy.2 mph94%30.00 "HgN/A
8:00 PM68 °FPartly cloudy.5 mph94%29.98 "HgN/A
7:00 PM68 °FPartly cloudy.3 mph94%29.96 "HgN/A
6:00 PM68 °FPartly cloudy.6 mph94%29.92 "HgN/A
5:00 PM68 °FLight rain. Broken clouds.3 mph100%29.91 "Hg5 mi
4:00 PM68 °FLight rain. Scattered clouds.6 mph100%29.90 "Hg5 mi
3:00 PM68 °FLight rain. Scattered clouds.6 mph94%29.88 "Hg5 mi
2:00 PM68 °FThunderstorms. Broken clouds.8 mph94%29.92 "Hg1 mi
1:30 PM77 °FSleet. Broken clouds.7 mph69%29.93 "HgN/A
1:00 PM82 °FThundershowers. Scattered clouds.7 mph62%29.94 "HgN/A
12:00 PM81 °FScattered showers. Broken clouds.9 mph66%29.97 "HgN/A
11:00 AM79 °FBroken clouds.6 mph65%30.00 "HgN/A
10:00 AM79 °FBroken clouds.3 mph65%30.03 "HgN/A
9:00 AM75 °FBroken clouds.3 mph74%30.05 "HgN/A
8:00 AM75 °FBroken clouds.No wind74%30.05 "HgN/A
7:00 AM70 °FBroken clouds.No wind88%30.04 "HgN/A
6:00 AM68 °FBroken clouds.3 mph94%30.03 "HgN/A
5:00 AM68 °FFog.3 mph94%30.00 "Hg5 mi
4:00 AM68 °FPassing clouds.2 mph94%29.99 "Hg5 mi
3:00 AM68 °FFog.3 mph94%29.99 "Hg1 mi
2:00 AM68 °FFog.3 mph94%29.99 "Hg1 mi
1:00 AM68 °FFog.5 mph94%30.00 "Hg1 mi
12:00 AM68 °FFog.6 mph94%30.02 "Hg1 mi
11:00 PM
Oct 19
68 °FFog.5 mph94%30.04 "Hg3 mi
Weather by CustomWeather, © 2014

See weather overviewHow to use our weather pages